Location: Tierra del Sol
(32.6128°N, 116.3319°W)
Time: 09:32:21
(UTC-07:00)

Amateur Radio Satellites - All Passes

Search period start: 28 May 2017 09:02
Search period end: 29 May 2017 09:02
Location: Tierra del Sol, 32.6128°N, 116.3319°W

Satellite Date Start Highest point End Downlink Frequencies (MHz)
Time Altitude Azimuth
CUBEBUG 2 28 May 09:04:34 09:09:00 46° 286° (WNW) 09:13:31 437.445
UWE-3 28 May 09:10:43 09:15:19 67° 284° (WNW) 09:19:56 435.000/436.395/437.385
HO-68 28 May 09:19:52 09:26:11 35° 294° (WNW) 09:32:31 435.675
RS-15 28 May 09:28:51 09:38:33 26° 40° (NE) 09:47:51 29.354- 29.394
Oscar 11 28 May 09:35:32 09:39:54 90° 54° (NE) 09:44:14 .
SRMSAT 28 May 09:36:56 09:40:14 15° 194° (SSW) 09:43:32 437.500
M-CUBED/EXP-1 PRIME 28 May 09:40:58 09:42:20 11° 260° (W) 09:43:40 437.505
TIGRISAT 28 May 09:42:40 09:46:37 39° 73° (ENE) 09:50:39 435.000
PRISM 28 May 09:46:10 09:50:16 67° 76° (ENE) 09:54:22 437.425
AAUSAT CUBESAT 2 28 May 09:47:28 09:50:34 21° 289° (WNW) 09:53:40 437.432
DELFI C3 28 May 09:48:15 09:51:38 28° 97° (E) 09:55:00 145.870
AO-73 28 May 10:04:54 10:08:57 32° 288° (WNW) 10:12:59 145.935
UNISAT 6 28 May 10:14:39 10:18:54 73° 258° (WSW) 10:23:15 437.425
FO-29 28 May 10:16:14 10:21:24 80° 257° (WSW) 10:26:41 435.910
ZACube-1 28 May 10:20:43 10:24:02 20° 290° (WNW) 10:27:21 437.345
EO-88 28 May 10:56:09 10:59:40 44° 285° (WNW) 11:03:10 145.990 - 145.960
NANOSAT C BR1 28 May 11:03:58 11:06:51 18° 70° (ENE) 11:09:45 145.865
YUBILEINY 28 May 11:04:13 11:10:39 22° 71° (ENE) 11:17:03 435.215
POLYITAN 1 28 May 11:09:54 11:13:17 24° 71° (ENE) 11:16:41 437.675
DUCHIFAT 1 28 May 11:13:16 11:16:24 21° 70° (ENE) 11:19:33 145.980
QB50P2 28 May 11:18:15 11:22:01 33° 73° (ENE) 11:25:48 145.880/145.840
TIGRISAT 28 May 11:21:30 11:23:27 13° 267° (W) 11:25:25 435.000
DELFI C3 28 May 11:23:46 11:26:09 16° 290° (WNW) 11:28:31 145.870
LO-87 28 May 11:32:32 11:36:00 50° 100° (E) 11:39:28 145.935 - 145.965
RS-15 28 May 11:40:37 11:52:47 89° 240° (WSW) 12:04:15 29.354- 29.394
ESTCUBE 1 28 May 11:45:13 11:49:25 38° 99° (E) 11:53:35 437.505/2401.250
AIST 2D 28 May 11:52:31 11:55:44 34° 262° (W) 11:59:00 435.315
EO-79 28 May 11:54:10 11:58:20 89° 96° (E) 12:02:33 145.935-145.965
SPROUT 28 May 12:11:31 12:14:20 17° 95° (E) 12:17:09 437.525
Oscar 19 28 May 12:21:04 12:24:09 16° 66° (ENE) 12:27:13 437.125/150
AO-85 28 May 12:22:10 12:24:24 14° 52° (NE) 12:26:42 145.980
VELOX 1 28 May 12:32:11 12:36:02 29° 98° (E) 12:39:51 145.980
50 SAT 28 May 12:33:09 12:34:04 11° 94° (E) 12:35:00 437.505
NANOSAT C BR1 28 May 12:38:47 12:42:20 27° 263° (W) 12:45:55 145.865
POLYITAN 1 28 May 12:45:49 12:48:57 21° 264° (W) 12:52:07 437.675
DUCHIFAT 1 28 May 12:48:33 12:51:54 23° 264° (W) 12:55:16 145.980
QB50P2 28 May 12:55:29 12:57:51 15° 266° (W) 13:00:14 145.880/145.840
BUGSAT 1 28 May 12:57:25 13:01:24 68° 259° (W) 13:05:23 437.445
YUBILEINY 28 May 12:59:19 13:08:03 67° 268° (W) 13:16:46 435.215
DX 1 28 May 13:01:23 13:04:37 20° 96° (E) 13:07:50 434.975-435.025
O/OREOS (USA 219) 28 May 13:01:32 13:05:04 22° 63° (ENE) 13:08:34 437.305
ESTCUBE 1 28 May 13:23:10 13:25:51 16° 292° (WNW) 13:28:32 437.505/2401.250
SPROUT 28 May 13:46:28 13:50:14 31° 288° (WNW) 13:53:59 437.525
BEESAT 3 28 May 13:50:30 13:54:15 37° 58° (ENE) 13:57:56 437.485
Gurwin Techsat 1B 28 May 13:52:31 13:57:48 80° 76° (ENE) 14:03:08 435.225
RS-15 28 May 13:56:26 14:03:23 18° 261° (W) 14:10:12 29.354- 29.394
Oscar 19 28 May 13:57:57 14:02:59 51° 260° (W) 14:08:03 437.125/150
AO-85 28 May 14:00:59 14:04:55 44° 245° (WSW) 14:09:07 145.980
50 SAT 28 May 14:04:03 14:06:57 27° 287° (WNW) 14:09:51 437.505
VELOX 1 28 May 14:09:08 14:12:14 19° 291° (WNW) 14:15:18 145.980
UKube-1 28 May 14:24:24 14:28:37 55° 285° (WNW) 14:32:48 .
DX 1 28 May 14:37:06 14:40:43 26° 289° (WNW) 14:44:20 434.975-435.025
O/OREOS (USA 219) 28 May 14:40:39 14:44:22 26° 258° (WSW) 14:48:04 437.305
NO-84 28 May 14:42:35 14:44:45 15° 35° (NE) 14:46:48 435.350 FM
BEESAT 28 May 14:47:51 14:51:05 18° 95° (E) 14:54:19 436.000
AO-7 28 May 14:55:37 15:03:34 53° 67° (ENE) 15:11:32 .
ITAMSAT 1 28 May 15:04:18 15:09:17 51° 73° (ENE) 15:14:16 435.822/435.867
BEESAT 2 28 May 15:12:35 15:16:37 65° 244° (WSW) 15:20:34 435.950
BEESAT 3 28 May 15:29:34 15:31:26 13° 252° (WSW) 15:33:17 437.485
MOZHAYETS 4 28 May 15:46:46 15:51:13 45° 99° (E) 15:55:38
ITUPSAT 1 28 May 15:52:10 15:57:00 86° 281° (W) 16:01:48 437.325
NO-84 28 May 16:19:07 16:22:35 48° 233° (SW) 16:25:46 435.350 FM
BEESAT 28 May 16:24:31 16:28:54 37° 288° (WNW) 16:33:17 436.000
KKS-1 28 May 16:25:11 16:27:33 14° 94° (E) 16:29:53 437.445
CUBESAT XI-V 28 May 16:39:10 16:43:07 27° 97° (E) 16:47:01 437.345
ITAMSAT 1 28 May 16:46:07 16:48:57 15° 266° (W) 16:51:49 435.822/435.867
AO-7 28 May 16:49:42 16:56:30 28° 262° (W) 17:03:23 .
STARS 28 May 16:51:08 16:51:52 10° 93° (E) 16:52:37 437.465
XW-2D 28 May 17:07:45 17:08:40 11° 68° (ENE) 17:09:35 145.860 - 145.880
XW-2B 28 May 17:14:50 17:16:37 13° 69° (ENE) 17:18:26 145.730 - 145.750
CUTE-I 28 May 17:17:23 17:21:03 19° 67° (ENE) 17:24:44 437.470
NUDT-PHONESAT 28 May 17:18:42 17:19:21 10° 68° (ENE) 17:19:59 437.300
XW-2F 28 May 17:24:56 17:27:27 17° 70° (ENE) 17:29:59 145.980 - 146.000
MOZHAYETS 4 28 May 17:25:28 17:27:55 14° 293° (WNW) 17:30:22
XW-2C 28 May 17:27:32 17:30:18 20° 71° (ENE) 17:33:05 145.795 - 145.815
KAITUO 1B 28 May 17:28:50 17:31:04 15° 70° (ENE) 17:33:20 145.475/437.950
PCSat 28 May 17:33:27 17:37:26 21° 106° (ESE) 17:41:26 145.827
Tancredo 1 28 May 17:47:39 17:49:21 14° 127° (SE) 17:51:04 437.200
DOVE 4 28 May 17:56:35 18:01:15 80° 259° (W) 18:05:40 437.250
HO-68 28 May 17:57:53 18:02:23 18° 60° (ENE) 18:06:52 435.675
KKS-1 28 May 18:00:03 18:04:12 40° 287° (WNW) 18:08:20 437.445
LilacSat-2 28 May 18:07:09 18:10:58 74° 77° (ENE) 18:14:49 437.200
CUBESAT XI-V 28 May 18:16:42 18:20:17 23° 290° (WNW) 18:23:51 437.345
STARS 28 May 18:24:10 18:28:26 52° 285° (WNW) 18:32:42 437.465
XW-2D 28 May 18:38:52 18:42:25 39° 261° (W) 18:46:02 145.860 - 145.880
ISS 28 May 18:40:37 18:43:40 37° 131° (SE) 18:46:45 437.550
XW-2A 28 May 18:43:28 18:45:24 15° 71° (ENE) 18:47:20 145.665 - 145.685
XW-2B 28 May 18:47:03 18:50:28 32° 262° (W) 18:53:56 145.730 - 145.750
NUDT-PHONESAT 28 May 18:49:22 18:52:50 38° 261° (W) 18:56:20 437.300
CUTE 1.7 + AOD 2 28 May 18:55:13 18:58:59 31° 73° (ENE) 19:02:47 437.475
CUTE-I 28 May 18:55:43 19:00:43 43° 261° (W) 19:05:45 437.470
XW-2F 28 May 18:58:16 19:01:21 24° 263° (W) 19:04:29 145.980 - 146.000
STRAND 1 28 May 18:59:41 19:02:25 14° 93° (E) 19:05:07 437.568
XW-2C 28 May 19:01:25 19:04:19 21° 264° (W) 19:07:16 145.795 - 145.815
KAITUO 1B 28 May 19:01:38 19:04:48 26° 263° (W) 19:08:02 145.475/437.950
PCSat 28 May 19:15:24 19:20:29 41° 300° (WNW) 19:25:36 145.827
Tancredo 1 28 May 19:22:03 19:24:52 32° 320° (NW) 19:27:41 437.200
ZACube-1 28 May 19:36:56 19:39:00 13° 67° (ENE) 19:41:05 437.345
SEEDS 28 May 19:39:16 19:43:29 69° 76° (ENE) 19:47:43 437.485
HO-68 28 May 19:42:08 19:49:17 74° 256° (WSW) 19:56:30 435.675
CUBEBUG 2 28 May 19:57:54 20:02:02 83° 77° (ENE) 20:06:16 437.445
UWE-3 28 May 20:03:05 20:07:08 52° 75° (ENE) 20:11:17 435.000/436.395/437.385
XW-2A 28 May 20:15:23 20:17:55 20° 264° (W) 20:20:30 145.665 - 145.685
ISS 28 May 20:17:55 20:20:16 18° 326° (NW) 20:22:36 437.550
Oscar 11 28 May 20:25:39 20:29:38 37° 74° (ENE) 20:33:40 .
AAUSAT CUBESAT 2 28 May 20:31:38 20:35:45 59° 260° (W) 20:39:53 437.432
CUTE 1.7 + AOD 2 28 May 20:32:03 20:34:49 17° 266° (W) 20:37:36 437.475
STRAND 1 28 May 20:36:48 20:41:48 52° 287° (WNW) 20:46:47 437.568
SO-50 28 May 20:53:37 20:57:34 29° 112° (ESE) 21:01:29 436.795
AO-73 28 May 20:55:05 20:59:16 72° 259° (W) 21:03:34 145.935
ZACube-1 28 May 21:10:55 21:14:51 40° 261° (W) 21:18:54 437.345
M-CUBED/EXP-1 PRIME 28 May 21:20:50 21:24:05 66° 106° (ESE) 21:27:20 437.505
EO-88 28 May 21:29:16 21:32:35 33° 74° (ENE) 21:35:55 145.990 - 145.960
FO-29 28 May 21:29:23 21:34:11 20° 95° (E) 21:39:15 435.910
PRISM 28 May 21:33:49 21:35:33 12° 94° (E) 21:37:17 437.425
TIGRISAT 28 May 21:39:55 21:42:07 13° 93° (E) 21:44:18 435.000
DELFI C3 28 May 22:02:53 22:06:46 52° 260° (W) 22:10:40 145.870
Oscar 11 28 May 22:03:30 22:05:52 14° 266° (W) 22:08:15 .
LO-87 28 May 22:06:58 22:07:33 10° 69° (ENE) 22:08:09 145.935 - 145.965
UNISAT 6 28 May 22:10:39 22:14:51 33° 98° (E) 22:19:04 437.425
SO-50 28 May 22:34:12 22:37:57 24° 306° (NW) 22:41:42 436.795
ESTCUBE 1 28 May 22:40:47 22:44:11 21° 70° (ENE) 22:47:35 437.505/2401.250
EO-88 28 May 23:05:27 23:06:21 11° 267° (W) 23:07:12 145.990 - 145.960
PRISM 28 May 23:07:11 23:10:55 37° 287° (WNW) 23:14:39 437.425
FO-29 28 May 23:12:39 23:19:20 65° 286° (WNW) 23:26:45 435.910
TIGRISAT 28 May 23:14:28 23:18:56 48° 286° (WNW) 23:23:26 435.000
AIST 2D 28 May 23:22:14 23:25:00 21° 96° (E) 23:27:45 435.315
VELOX 1 28 May 23:26:02 23:28:41 16° 68° (ENE) 23:31:21 145.980
LO-87 28 May 23:37:23 23:40:37 33° 262° (W) 23:43:52 145.935 - 145.965
EO-79 28 May 23:43:59 23:47:09 20° 96° (E) 23:50:19 145.935-145.965
UNISAT 6 28 May 23:47:58 23:51:16 20° 291° (WNW) 23:54:36 437.425
RS-15 28 May 23:49:17 23:57:02 20° 99° (E) 00:04:53 29.354- 29.394
DX 1 28 May 23:54:53 23:55:47 11° 66° (ENE) 23:56:41 434.975-435.025
YUBILEINY 28 May 23:59:27 00:06:32 29° 85° (E) 00:13:39 435.215
ESTCUBE 1 29 May 00:16:51 00:20:46 28° 263° (W) 00:24:42 437.505/2401.250
NANOSAT C BR1 29 May 00:26:36 00:30:49 63° 100° (E) 00:35:02 145.865
50 SAT 29 May 00:31:15 00:34:31 41° 75° (ENE) 00:37:47 437.505
POLYITAN 1 29 May 00:33:39 00:37:57 87° 100° (E) 00:42:14 437.675
SPROUT 29 May 00:34:26 00:38:39 76° 258° (WSW) 00:42:53 437.525
DUCHIFAT 1 29 May 00:35:48 00:40:04 73° 103° (ESE) 00:44:17 145.980
QB50P2 29 May 00:42:32 00:46:47 66° 284° (WNW) 00:51:01 145.880/145.840
BUGSAT 1 29 May 00:43:51 00:47:12 23° 97° (E) 00:50:33 437.445
AIST 2D 29 May 00:55:44 00:58:00 16° 289° (WNW) 01:00:16 435.315
VELOX 1 29 May 01:00:43 01:04:47 36° 261° (W) 01:08:53 145.980
UKube-1 29 May 01:13:52 01:18:08 65° 75° (ENE) 01:22:24 .
EO-79 29 May 01:19:18 01:22:50 26° 289° (WNW) 01:26:22 145.935-145.965
JUGNU 29 May 01:24:58 01:28:26 16° 167° (SSE) 01:31:56 437.505
DX 1 29 May 01:27:11 01:31:26 55° 259° (W) 01:35:42 434.975-435.025
Tancredo 1 29 May 01:50:27 01:53:00 23° 38° (NE) 01:55:32 437.200
BEESAT 29 May 01:51:06 01:53:15 13° 66° (ENE) 01:55:25 436.000
YUBILEINY 29 May 01:54:27 02:02:48 50° 281° (W) 02:11:16 435.215
RS-15 29 May 01:55:49 02:07:50 88° 296° (WNW) 02:20:18 29.354- 29.394
Gurwin Techsat 1B 29 May 02:13:29 02:18:35 46° 100° (E) 02:23:39 435.225
Oscar 19 29 May 02:13:56 02:19:06 82° 103° (ESE) 02:24:13 437.125/150
BUGSAT 1 29 May 02:19:12 02:22:24 22° 289° (WNW) 02:25:37 437.445
AO-85 29 May 02:33:35 02:35:13 12° 109° (ESE) 02:36:50 145.980
MOZHAYETS 4 29 May 02:44:25 02:48:13 26° 71° (ENE) 02:52:01
ISS 29 May 02:48:09 02:51:24 63° 43° (NE) 02:54:38 437.550
ITUPSAT 1 29 May 02:54:08 02:58:50 65° 75° (ENE) 03:03:35 437.325
AO-7 29 May 03:03:32 03:09:39 22° 96° (E) 03:15:43 .
O/OREOS (USA 219) 29 May 03:08:15 03:12:46 60° 106° (ESE) 03:17:17 437.305
JUGNU 29 May 03:12:16 03:16:49 23° 176° (S) 03:21:23 437.505
ITAMSAT 1 29 May 03:22:09 03:26:28 26° 97° (E) 03:30:47 435.822/435.867
BEESAT 29 May 03:25:53 03:30:30 53° 259° (W) 03:35:10 436.000
Tancredo 1 29 May 03:26:17 03:28:38 20° 231° (SW) 03:30:57 437.200
BEESAT 3 29 May 03:36:41 03:39:27 19° 110° (ESE) 03:42:15 437.485
CUBESAT XI-V 29 May 03:38:44 03:41:46 17° 68° (ENE) 03:44:48 437.345
Gurwin Techsat 1B 29 May 03:54:34 03:58:06 18° 294° (WNW) 04:01:39 435.225
SRMSAT 29 May 03:58:08 04:01:34 16° 166° (SSE) 04:05:01 437.500
PCSat 29 May 04:07:22 04:12:45 60° 63° (ENE) 04:18:05 145.827
AO-85 29 May 04:11:12 04:15:15 44° 301° (WNW) 04:19:07 145.980
RS-15 29 May 04:12:37 04:22:13 26° 320° (NW) 04:32:00 29.354- 29.394
MOZHAYETS 4 29 May 04:21:33 04:25:15 24° 264° (W) 04:28:58
O/OREOS (USA 219) 29 May 04:51:12 04:52:32 11° 301° (WNW) 04:53:52 437.305
KKS-1 29 May 04:52:57 04:57:22 79° 256° (WSW) 05:01:49 437.445
AO-7 29 May 04:54:33 05:02:50 67° 290° (WNW) 05:11:04 .
BEESAT 2 29 May 04:59:12 05:03:05 64° 116° (ESE) 05:07:03 435.950
JUGNU 29 May 05:00:50 05:05:15 22° 187° (S) 05:09:40 437.505
ITAMSAT 1 29 May 05:01:21 05:05:50 30° 290° (WNW) 05:10:21 435.822/435.867
BEESAT 3 29 May 05:13:26 05:16:48 27° 304° (NW) 05:20:14 437.485
CUBESAT XI-V 29 May 05:14:24 05:18:47 38° 262° (W) 05:23:11 437.345
STARS 29 May 05:15:46 05:20:06 75° 76° (ENE) 05:24:27 437.465
SRMSAT 29 May 05:45:31 05:50:08 23° 176° (S) 05:54:44 437.500
LilacSat-2 29 May 05:47:08 05:48:17 11° 93° (E) 05:49:25 437.200
PCSat 29 May 05:52:53 05:55:32 14° 257° (WSW) 05:58:11 145.827
NO-84 29 May 05:56:08 05:58:06 13° 119° (ESE) 06:00:04 435.350 FM
DOVE 4 29 May 05:59:41 06:03:34 35° 99° (E) 06:07:36 437.250
STRAND 1 29 May 06:11:55 06:14:22 14° 65° (ENE) 06:16:48 437.568
XW-2D 29 May 06:15:55 06:19:13 27° 97° (E) 06:22:28 145.860 - 145.880
XW-2B 29 May 06:23:47 06:27:16 33° 98° (E) 06:30:44 145.730 - 145.750
NUDT-PHONESAT 29 May 06:24:20 06:27:28 25° 96° (E) 06:30:35 437.300
XW-2F 29 May 06:34:04 06:37:46 44° 100° (E) 06:41:23 145.980 - 146.000
KAITUO 1B 29 May 06:36:43 06:40:16 37° 98° (E) 06:43:46 145.475/437.950
XW-2C 29 May 06:37:22 06:41:08 52° 100° (E) 06:44:51 145.795 - 145.815
RS-15 29 May 06:39:16 06:41:34 11° 356° (N) 06:43:52 29.354- 29.394
JUGNU 29 May 06:50:56 06:53:37 13° 196° (SSW) 06:56:18 437.505
AO-7 29 May 06:51:33 06:54:00 12° 308° (NW) 06:56:29 .
SO-50 29 May 07:08:34 07:13:06 86° 58° (ENE) 07:17:38 436.795
HO-68 29 May 07:15:38 07:21:37 28° 97° (E) 07:27:33 435.675
CUTE-I 29 May 07:16:56 07:22:16 75° 285° (WNW) 07:27:36 437.470
LilacSat-2 29 May 07:19:05 07:22:40 36° 286° (WNW) 07:26:12 437.200
SEEDS 29 May 07:28:51 07:31:24 16° 94° (E) 07:33:56 437.485
NO-84 29 May 07:30:54 07:35:15 65° 312° (NW) 07:39:36 435.350 FM
SRMSAT 29 May 07:34:13 07:38:43 22° 186° (S) 07:43:13 437.500
DOVE 4 29 May 07:38:34 07:40:59 15° 290° (WNW) 07:43:27 437.250
XW-2A 29 May 07:40:51 07:43:52 28° 98° (E) 07:46:53 145.665 - 145.685
STRAND 1 29 May 07:47:59 07:52:59 58° 259° (W) 07:58:01 437.568
XW-2D 29 May 07:50:49 07:53:07 15° 290° (WNW) 07:55:25 145.860 - 145.880
CUBEBUG 2 29 May 07:53:07 07:57:01 26° 96° (E) 08:00:58 437.445
UWE-3 29 May 07:57:51 08:00:52 17° 94° (E) 08:03:53 435.000/436.395/437.385
NUDT-PHONESAT 29 May 07:58:47 08:01:07 16° 290° (WNW) 08:03:28 437.300
XW-2B 29 May 07:59:21 08:01:06 13° 291° (WNW) 08:02:52 145.730 - 145.750
M-CUBED/EXP-1 PRIME 29 May 08:01:54 08:05:54 41° 70° (ENE) 08:09:37 437.505
KAITUO 1B 29 May 08:12:49 08:13:51 11° 292° (WNW) 08:14:53 145.475/437.950
AAUSAT CUBESAT 2 29 May 08:18:31 08:22:04 28° 97° (E) 08:25:36 437.432
CUTE 1.7 + AOD 2 29 May 08:19:37 08:23:51 68° 284° (WNW) 08:28:02 437.475
AO-73 29 May 08:47:32 08:51:35 31° 97° (E) 08:55:37 145.935
